Regional Weather Roundup
Issued by NWS

Home | Current Version | Previous Version | Graphics & Text | Print | Product List | Glossary On
Versions: 1 2 3 4 5 6 7 8 9 10 11 12 13 14 15 16 17 18 19 20 21 22 23 24 25 26 27 28 29 30 31 32 33 34 35 36 37 38 39 40 41 42 43 44 45 46 47 48 49 50
000
ASUS45 KSLC 250410
RWRUT

UTAH REGIONAL WEATHER ROUNDUP
NATIONAL WEATHER SERVICE SALT LAKE CITY UT
1000 PM MDT THU JUL 24 2014

UTZ001>011-023>025-250500-

NORTHERN UTAH

CITY           SKY/WX    TMP DP  RH WIND       PRES   REMARKS
HILL AFB       NOT AVBL
LOGAN          CLEAR     73  38  27 N15       30.02R
OGDEN          CLEAR     79  43  27 N6        29.97R
PROVO AIRPORT  CLEAR     77  52  41 N3        29.99R
SALT LAKE CITY MOCLDY    80  47  31 S3        29.95R
VERNAL         PTCLDY    75  55  49 CALM      30.06R
WENDOVER       CLEAR     84  36  17 N22       29.98R
HEBER CITY     CLEAR     72  39  30 E7        30.07R
WEST JORDAN    CLEAR     79  41  25 W7        29.99S

$$

UTZ012>022-026-027-250500-

SOUTHERN UTAH

CITY           SKY/WX    TMP DP  RH WIND       PRES   REMARKS
BRYCE CANYON   MOCLDY    65  41  41 S6        30.30R
CEDAR CITY     PTCLDY    83  42  23 SW21G28   30.10R
MILFORD        CLEAR     84  39  20 SW12      30.01R
MOAB/CYNLANDS  CLEAR     89  43  20 S8        29.98R
PRICE          CLEAR     76  46  34 NE7       30.11R
ST GEORGE      CLEAR     93  52  24 S26G32    29.88R HX  90

$$

REGIONAL REPORTS     COLORADO/ARIZONA

CITY           SKY/WX    TMP DP  RH WIND       PRES   REMARKS
CRAIG, CO      MOCLDY    63  49  60 N7        30.17R
GRAND JUNCTION CLEAR     78  51  38 SE10      30.08R
RIFLE          PTCLDY    76  50  40 E15       30.16R
MONTROSE       MOCLDY    74  52  46 SE12G22   30.22R
CORTEZ         PTCLDY    75  53  46 N6        30.24R
PAGE, AZ       MOCLDY    89  48  24 SW10G22   30.03R
GRAND CANYON   CLOUDY    65  56  72 CALM      30.29R
KINGMAN        MOCLDY    88  52  29 SE24      29.97R
FLAGSTAFF      PTCLDY    62  54  74 CALM      30.33R

$$

REGIONAL REPORTS    NEVADA/IDAHO/WYOMING

CITY           SKY/WX    TMP DP  RH WIND       PRES   REMARKS
LAS VEGAS, NV  PTCLDY   103  31   8 SW10      29.75R HX  96
ELY            CLEAR     73  18  12 S12       30.10R
ELKO           CLEAR     73  27  18 CALM      30.05R
POCATELLO, ID  CLEAR     66  31  27 SW20      30.09R
BURLEY         CLEAR     59  39  47 S9        30.08R
EVANSTON, WY   PTCLDY    70  32  24 N6        30.21R
ROCK SPRINGS   PTCLDY    73  27  18 W6        30.18R

$$



USA.gov is the U.S. government's official web portal to all federal, state and local government web resources and services.